Terug naar catalogus

THOR ABLESTAR DEB

ActiefLEO
NORAD 225·DEBRIS·🇺🇸 United States

Gelanceerd Jun 29, 1961 vanaf Cape Canaveral Space Force Station

Loading…

Volgende Passages (komende 24 uur)

TLE

VersSource: Space-Track

Epoch: Sep 7, 2026, 15:50 UTC

1 00225U 61015BM  26250.66038388  .00001008  00000-0  33879-3 0  9991
2 00225  66.7969  29.4299 0097134 158.3055 202.2207 14.38630176369596

Volg THOR ABLESTAR DEB in realtime met AllMySat

Download on the App Store